Location: Brad
(46.1333°N, 22.7833°E)
Time: 06:02:12
(UTC+00:00)

Cosmos 2278 - Pass Details

Date: 03 February 2023
Orbit: 838 x 853 km, 71.1° (Epoch: 29 March)

Event Time Altitude Azimuth Distance (km) Brightness Sun altitude
Rises 16:17:36 0° 211° (SSW) 3,385 7.6 -7.6°
Reaches altitude 10° 16:20:02 10° 213° (SSW) 2,457 6.9 -8.0°
Maximum altitude 16:25:40 72° 298° (WNW) 892 4.0 -8.9°
Drops below altitude 10° 16:31:22 10° 23° (NNE) 2,483 5.8 -9.9°
Sets 16:33:51 0° 26° (NNE) 3,425 6.5 -10.3°
